www.pogodaiklimat.ru

Погода и климат >> Архив погоды >> Россия >> Еврейская автономная область >> Ленинское


ПОГОДА в Ленинское

  • Прогноз погоды в Ленинское
  • Монитор погоды в Ленинское

АРХИВ ПОГОДЫ в Ленинское

Время (UTC), дата Ветер
(напр.,м/с)
 
Видим.   Явления Облачность Т
(С)
Тd
(С)
f
(%)
Тe
(С)
Тes
(С)
Комфортность P
(гПа)
Po
(гПа)
Тmin
(С)
Tmax
(С)
R
(мм)
R24
(мм)
S
(см)
12 13.05 Ю 5
{12}
20 км 9/4 600 м
[Cb cap Ci fib]
+17.7 +8.1 53 +17 +17 1007.7 1001.2
18 13.05 ЮВ 3 20 км 10/10 600 м
[Cb cap]
+12.4 +8.7 78 +11 +11 1009.5 1002.9
21 13.05 Ю 2 10 км в посл. час ливневой дождь 10/10 600 м
[Cb cap]
+12.0 +10.0 88 +11 +11 1010.0 1003.4 +11.6 0.4
00 14.05 Ю 3 20 км {ливн. осадки} 9/3 600 м
[Cb cap Ac trans Ci fib]
+14.3 +10.0 75 +13 +17 1011.3 1004.8
06 14.05 ЮВ 5 20 км 9/6 600 м
[Cb cap Ci fib]
+18.9 +9.8 55 +19 +21 1008.9 1002.5
09 14.05 ЮВ 3 20 км 10/3 600 м
[Cb cap Ac lent Ci fib]
+18.6 +8.6 52 +19 +20 1007.4 1001.0 +20.1
12 14.05 ЮЗ 3
{10}
20 км 9/6 600 м
[Cb cap Ac trans Ci fib]
+15.5 +9.0 65 +15 +15 1009.2 1002.7
21 14.05 ЮВ 1 20 км 6/4 600 м
[Cb cap Ci fib]
+11.3 +8.9 85 +11 +12 1008.3 1001.7 +8.5 0.1
00 15.05 штиль 0 50 км ?/? +15.9 +10.2 69 +16 +16 1008.9 1002.4
03 15.05 ЮЗ 5 50 км 4/3 600 м
[Cb cap Ac lent]
+21.4 +6.0 37 +22 +28 комфорт 1007.8 1001.4
06 15.05 Ю 5 50 км 4/3 600 м
[Cu Sc Ac trans Ci fib]
+21.4 +5.4 35 +22 +26 комфорт 1006.4 1000.0
09 15.05 Ю 1 50 км 10/4 600 м
[Cb cap Ci sp]
+20.3 +5.7 38 +22 +23 комфорт 1005.1 998.7 +22.4
15 15.05 В 2 50 км 6/0
[Ci fib]
+13.1 +7.4 68 +12 +12 1002.9 996.4
18 15.05 В 2 50 км 10/8 600 м
[Cb cap Ci fib]
+12.1 +8.5 79 +11 +11 1002.9 996.4
21 15.05 В 1 20 км 10/5 600 м
[Cb cap Ac lent Ci fib]
+11.6 +8.4 81 +11 +12 1002.4 995.9 +9.8
00 16.05 Ю 4 20 км 10/4 600 м
[Cb cap Ci fib]
+16.2 +9.2 63 +16 +19 1003.1 996.6
03 16.05 Ю 4
{11}
20 км 9/9 600 м
[Cb cap]
+19.5 +9.1 51 +20 +22 1000.7 994.4
06 16.05 З 10-20
{22}
20 км в посл. час гроза {ливн. осадки} 10/10 600 м
[Cb cap]
+14.5 +7.0 61 +12 +12 1000.7 994.2
09 16.05 Ю 4
{18}
10 км в посл. час ливневой дождь {гроза} 10/8 600 м
[Cb cap Ci fib]
+16.7 +8.6 59 +16 +16 1001.2 994.8 +20.4 7
12 16.05 ЮВ 2 20 км {гроза, ливн. осадки} 10/5 600 м
[Cb cap Ci fib]
+12.9 +9.8 81 +12 +12 1003.4 996.9
18 16.05 ЮВ 2 20 км 9/9 600 м
[Cb cap]
+13.0 +10.1 83 +12 +12 1003.8 997.2
21 16.05 Ю 4
{10}
20 км 9/9 600 м
[Cb cap]
+13.1 +11.1 88 +11 +11 1003.6 997.1 +9.9
00 17.05 Ю 7-11
{11}
20 км 4/3 600 м
[Cb cap Ci fib]
+17.3 +11.7 70 +16 +18 1004.1 997.6
03 17.05 ЮЗ 7-10
{11}
50 км 9/9 600 м
[Cb cap]
+21.1 +9.2 46 +22 +23 комфорт 1003.8 997.5
06 17.05 ЮЗ 6
{12}
50 км 10/3 600 м
[Cu Sc Ci sp]
+22.6 +2.1 26 +22 +25 комфорт 1005.1 998.7
09 17.05 ЮЗ 3
{12}
50 км 10/4 600 м
[Cb cap Ci sp]
+21.5 +4.8 34 +22 +23 комфорт 1005.4 999.0 +23.5
12 17.05 Ю 2 50 км 10/9 600 м
[Cb cap Ci fib]
+16.6 +7.4 55 +17 +17 1005.6 999.1
15 17.05 Ю 3 50 км 4/3 600 м
[Cb cap Ci fib]
+14.5 +9.4 71 +14 +14 1005.0 998.5
18 17.05 ЮЗ 1 50 км в посл. час гроза 10/8 600 м
[Cb cap Ci fib]
+13.7 +12.3 91 +14 +14 1005.8 999.3
21 17.05 С 1 10 км в посл. час гроза 10/10 600 м
[Cb cap]
+12.6 +12.0 96 +13 +13 1006.4 999.9 +12.3
00 18.05 З 3 10 км {гроза, ливн. осадки} 10/8 600 м
[Cb cap Ci sp]
+14.5 +13.4 93 +14 +15 1007.8 1001.3
03 18.05 СЗ 1 50 км {ливн. осадки} 10/10 600 м
[Cb cap]
+16.3 +12.1 76 +17 +17 1009.2 1002.7
06 18.05 СЗ 2 50 км {ливн. осадки} 10/10 600 м
[Cb cap]
+14.7 +9.0 69 +14 +14 1008.5 1002.0
09 18.05 СЗ 1 10 км слаб. ливневой дождь 10/8 600 м
[Cb cap Ci sp]
+9.4 +8.9 97 +9 +9 1008.3 1001.6 +17.5 16
12 18.05 ЮЗ 1 10 км слаб. ливневой дождь 10/9 600 м
[Cb cap Ci fib]
+10.0 +9.6 97 +9 +9 1009.7 1003.1
21 18.05 Ю 1 10 км {туман} 9/9 600 м
[Cb cap]
+9.6 +9.3 98 +9 +9 1012.0 1005.4 +8.2 3
00 19.05 З 2 20 км {туман} 10/6 600 м
[Cb cap Ac trans Ci sp]
+13.0 +10.4 84 +12 +14 1012.2 1005.6
09 19.05 В 1 50 км 10/10 600 м
[Cb cap]
+15.1 +10.1 72 +16 +16 1007.7 1001.2 +16.9 0.4
12 19.05 СВ 3 10 км слаб. ливневой дождь 10/8 600 м
[Cb cap Ci sp]
+12.3 +10.7 90 +11 +11 1005.0 998.4
21 19.05 ЮВ 5 10 км слаб. ливневой дождь 10/10 600 м
[Cb cap]
+14.2 +13.2 94 +12 +12 993.9 987.5 +11.1 32
00 20.05 ЮВ 4 2000 м ливневой дождь 10/10 600 м
[Cb cap]
+13.9 +13.4 97 +12 +12 991.9 985.5

 

Местоположение метеостанции Ленинское (Еврейская автономная область, Россия): широта 47.95 долгота 132.60 высота над уровнем моря 57 м.

В архиве по умолчанию представлена погода в Ленинское за последнюю неделю. Архивные данные за месяц целиком и за предыдущие месяцы, начиная с января 2011 года, Вы можете получить, выбрав интересующий диапазон дат из раскрывающегося списка и нажав кнопку "Ввод!".


*Определитесь, кто Вы:
робот инопланетянин человек

Внимание! Время в таблицах - всемирное. Для получения местного времени необходимо прибавить поправку, которая равна 10 ч.

Смотрите также архив погоды в соседних городах и на ближайших метеорологических станциях:

Погода в Биджане (Еврейская автономная область, Россия) (54 км)
Погода в Биробиджане (Еврейская автономная область, Россия) (90 км)
Погода в Фуцзине (Хэйлунцзян, Китай) (93 км)
Погода в Смидовиче (Еврейская автономная область, Россия) (115 км)
Погода в Хабаровск Центре (Еврейская автономная область, Россия) (123 км)
Погода в Екатерино-Никольском (Еврейская автономная область, Россия) (129 км)
Погода в Лермонтовке (Хабаровский край, Россия) (156 км)
Погода в Вяземском (Хабаровский край, Россия) (164 км)
Погода в Облучье (Еврейская автономная область, Россия) (166 км)
Погода в Урми (Хабаровский край, Россия) (167 км)

Пояснения к столбцам:

Ветер - указаны скорость ветра в м/с - средняя за 10 мин, порывы в срок и между сроками (в фигурных скобках) и направление, откуда дует ветер: С - северный, СВ - северо-восточный, В - восточный, ЮВ - юго-восточный, Ю - южный, ЮЗ - юго-западный, З - западный, СЗ - северо-западный.
Видимость - горизонтальная дальность видимости в метрах или километрах. При видимости от 1 до 10 км при отсутствии осадков обычно наблюдается дымка, при ухудшении видимости до 1 км и менее - туман. В сухую погоду видимость может ухудшаться дымом, пылью или мглою.
Явления - указаны атмосферные явления, наблюдавшиеся в срок или в последний час перед сроком; фигурными скобками обозначены явления, наблюдавшиеся между сроками (за 1-3 часа до срока); квадратными скобками обозначены град или гололедные отложения с указанием их диаметра в мм.
Облачность - указаны через наклонную черту общая и нижняя облачность в баллах и высота нижней границы облаков в метрах; квадратными скобками обозначены формы облаков: Ci - перистые, Cs - перисто-слоистые, Cc - перисто-кучевые, Ac - высококучевые, As - высокослоистые, Sc - слоисто-кучевые, Ns - слоисто-дождевые, Cu - кучевые, Cb - кучево-дождевые. Подробнее классификацию облаков см. в Атласе облаков (PDF).
T - Температура воздуха - температура, измеренная на высоте 2 м над землей.
Td - Температура точки росы - температура, при понижении до которой содержащийся в воздухе водяной пар достигнет насыщения.
f - Относительная влажность воздуха - влажноcть воздуха, измеренная на высоте 2 м над землей.
Te - Эффективная температура - температура, которую ощущает одетый по сезону человек в тени. Характеристика душности погоды. При расчете учитывается влияние влажности воздуха и скорости ветра на теплоощущения человека.
Tes - Эффективная температура на солнце - температура, которую ощущает человек, с поправкой на солнечный нагрев. Характеристика знойности погоды. Зависит от высоты солнца над горизонтом, облачности и скорости ветра. Ночью, в пасмурную погоду, а также при ветре 12 м/с и более поправка равна нулю.
P - Атмосферное давление - приведенное к уровню моря атмосферное давление.
Po - Атмосферное давление - измеренное на уровне метеостанции атмосферное давление.
Tmin - Минимальная температура - минимум температуры воздуха на высоте 2 м над землей.
Tmax - Максимальная температура - максимум температуры воздуха на высоте 2 м над землей.
R - Количество осадков - Количество выпавших осадков за период времени, мм. При наведении курсора мыши на число - период времени, за который выпало указанное количество осадков.
R24 - Количество осадков - Количество выпавших осадков за 24 часа, мм.
S - Снежный покров - Высота снежного покрова, см. При наведении курсора мыши на число - состояние снежного покрова и степень покрытия местности в баллах.